Weather History for KDYT - September, 2012

Change the Weather History Date:

Tuesday, September 18, 2012

  Actual Average Record
Temperature  
Mean Temperature 49 °F -  
Max Temperature 57 °F 65 °F 88 °F (1984)
Min Temperature 41 °F 47 °F 30 °F (1959)
Degree Days  
Heating Degree Days 16    
Moisture  
Dew Point 32 °F    
Average Humidity 53    
Maximum Humidity 81    
Minimum Humidity 23    
Precipitation  
Precipitation 0.00 in - - ()
Sea Level Pressure  
Sea Level Pressure 29.97 in    
Wind  
Wind Speed 8 mph (NNW)    
Max Wind Speed 16 mph    
Max Gust Speed 17 mph    
Visibility 10 miles    
Events      
Averages and records for this station are not official NWS values.
T = Trace of Precipitation, MM = Missing Value Source: NWS Daily Summary

Daily Weather History Graph

Daily Weather History Graph

Search for Another Location

Airport or City:

Astronomy

Sep. 18, 2012 Rise Set
Actual Time 6:50 AM CDT 7:12 PM CDT
Civil Twilight 6:20 AM CDT 7:43 PM CDT
Nautical Twilight 5:44 AM CDT 8:18 PM CDT
Astronomical Twilight 5:07 AM CDT 8:55 PM CDT
Moon 10:06 AM CDT (9/18) 8:19 PM CDT (9/18)
Length of Visible Light 13h 22m
Length of Day
12h 22m
Waxing Crescent, 9% of the Moon is Illuminated
Sep 18
Waxing Crescent
Sep 22
First Quarter
Sep 29
Full
Oct 8
Last Quarter
Oct 15
New

Hourly Weather History & Observations

Time (CDT) Temp. Windchill Dew Point Humidity Pressure Visibility Wind Dir Wind Speed Gust Speed Precip Events Conditions
12:13 AM 50.0 °F - 37.4 °F 62% 29.98 in 10.0 mi NNW 11.5 mph - N/A   Overcast
12:33 AM 50.0 °F - 37.4 °F 62% 29.98 in 10.0 mi NW 10.4 mph - N/A   Overcast
12:54 AM 48.2 °F - 35.6 °F 62% 29.97 in 10.0 mi NNW 8.1 mph - N/A   Overcast
1:13 AM 48.2 °F - 35.6 °F 62% 29.98 in 10.0 mi NW 9.2 mph - N/A   Mostly Cloudy
1:34 AM 48.2 °F - 37.4 °F 66% 29.98 in 10.0 mi NNW 10.4 mph - N/A   Scattered Clouds
1:54 AM 48.2 °F - 37.4 °F 66% 29.98 in 10.0 mi NNW 12.7 mph 17.3 mph N/A   Clear
2:34 AM 46.4 °F 39.8 °F 35.6 °F 66% 29.97 in 10.0 mi NNW 16.1 mph - N/A   Clear
2:54 AM 46.4 °F 40.4 °F 35.6 °F 66% 29.97 in 10.0 mi NNW 13.8 mph - N/A   Clear
3:13 AM 44.6 °F 39.2 °F 35.6 °F 71% 29.97 in 10.0 mi NNW 10.4 mph - N/A   Clear
3:33 AM 44.6 °F 38.4 °F 35.6 °F 71% 29.97 in 10.0 mi NNW 12.7 mph - N/A   Clear
3:54 AM 44.6 °F 38.8 °F 35.6 °F 71% 29.97 in 10.0 mi NNW 11.5 mph - N/A   Clear
4:13 AM 46.4 °F 41.5 °F 35.6 °F 66% 29.97 in 10.0 mi NNW 10.4 mph - N/A   Clear
4:33 AM 44.6 °F 39.7 °F 35.6 °F 71% 29.98 in 10.0 mi NNW 9.2 mph - N/A   Clear
4:54 AM 44.6 °F 41.4 °F 35.6 °F 71% 29.99 in 10.0 mi NW 5.8 mph - N/A   Clear
5:13 AM 44.6 °F 43.1 °F 35.6 °F 71% 29.99 in 10.0 mi West 3.5 mph - N/A   Clear
5:33 AM 42.8 °F - 35.6 °F 76% 29.99 in 10.0 mi Calm Calm - N/A   Clear
5:54 AM 42.8 °F - 35.6 °F 76% 30.00 in 10.0 mi Calm Calm - N/A   Clear
6:13 AM 42.8 °F 41.1 °F 35.6 °F 76% 30.00 in 10.0 mi NW 3.5 mph - N/A   Scattered Clouds
6:33 AM 41.0 °F - 35.6 °F 81% 30.01 in 10.0 mi Calm Calm - N/A   Scattered Clouds
6:54 AM 41.0 °F - 35.6 °F 81% 30.01 in 10.0 mi Calm Calm - N/A   Clear
7:13 AM 42.8 °F 39.3 °F 35.6 °F 76% 30.01 in 10.0 mi NNW 5.8 mph - N/A   Clear
7:33 AM 42.8 °F 41.1 °F 35.6 °F 76% 30.01 in 10.0 mi NW 3.5 mph - N/A   Clear
7:54 AM 44.6 °F 42.2 °F 35.6 °F 71% 30.02 in 10.0 mi WNW 4.6 mph - N/A   Clear
8:13 AM 44.6 °F 41.4 °F 35.6 °F 71% 30.02 in 10.0 mi WNW 5.8 mph - N/A   Clear
8:33 AM 44.6 °F 39.2 °F 35.6 °F 71% 30.02 in 10.0 mi NNW 10.4 mph - N/A   Clear
8:54 AM 46.4 °F 41.5 °F 33.8 °F 62% 30.02 in 10.0 mi NW 10.4 mph - N/A   Clear
9:13 AM 46.4 °F 41.9 °F 33.8 °F 62% 30.02 in 10.0 mi NW 9.2 mph - N/A   Clear
9:33 AM 48.2 °F - 33.8 °F 58% 30.01 in 10.0 mi NW 8.1 mph - N/A   Clear
9:54 AM 48.2 °F - 30.2 °F 50% 30.01 in 10.0 mi NW 10.4 mph - N/A   Clear
10:13 AM 48.2 °F - 28.4 °F 46% 30.02 in 10.0 mi NNW 11.5 mph - N/A   Clear
10:33 AM 50.0 °F - 30.2 °F 47% 30.02 in 10.0 mi North 10.4 mph - N/A   Clear
10:54 AM 51.8 °F - 28.4 °F 41% 30.01 in 10.0 mi NNW 9.2 mph - N/A   Clear
11:13 AM 51.8 °F - 26.6 °F 38% 30.01 in 10.0 mi NW 9.2 mph - N/A   Clear
11:34 AM 53.6 °F - 26.6 °F 35% 30.01 in 10.0 mi NNW 12.7 mph - N/A   Clear
11:54 AM 53.6 °F - 26.6 °F 35% 30.01 in 10.0 mi NNW 11.5 mph - N/A   Clear
12:13 PM 53.6 °F - 26.6 °F 35% 30.00 in 10.0 mi North 13.8 mph 17.3 mph N/A   Clear
12:34 PM 55.4 °F - 24.8 °F 31% 30.01 in 10.0 mi NNW 9.2 mph - N/A   Clear
12:54 PM 55.4 °F - 24.8 °F 31% 30.00 in 10.0 mi North 5.8 mph - N/A   Clear
1:13 PM 55.4 °F - 26.6 °F 33% 29.99 in 10.0 mi North 10.4 mph - N/A   Clear
1:34 PM 55.4 °F - 26.6 °F 33% 29.98 in 10.0 mi NNE 4.6 mph - N/A   Clear
1:53 PM 55.4 °F - 24.8 °F 31% 29.97 in 10.0 mi NNE 5.8 mph - N/A   Clear
2:13 PM 55.4 °F - 26.6 °F 33% 29.97 in 10.0 mi ENE 4.6 mph - N/A   Clear
2:34 PM 55.4 °F - 26.6 °F 33% 29.96 in 10.0 mi East 3.5 mph - N/A   Clear
2:53 PM 55.4 °F - 26.6 °F 33% 29.96 in 10.0 mi East 4.6 mph - N/A   Clear
3:13 PM 57.2 °F - 19.4 °F 23% 29.95 in 10.0 mi NNW 4.6 mph - N/A   Clear
3:34 PM 57.2 °F - 28.4 °F 33% 29.94 in 10.0 mi NE 5.8 mph - N/A   Clear
3:53 PM 55.4 °F - 26.6 °F 33% 29.94 in 10.0 mi East 4.6 mph - N/A   Clear
4:14 PM 57.2 °F - 24.8 °F 29% 29.94 in 10.0 mi Calm Calm - N/A   Scattered Clouds
4:34 PM 57.2 °F - 28.4 °F 33% 29.94 in 10.0 mi East 3.5 mph - N/A   Scattered Clouds
4:53 PM 57.2 °F - 28.4 °F 33% 29.93 in 10.0 mi East 5.8 mph - N/A   Mostly Cloudy
5:14 PM 57.2 °F - 35.6 °F 44% 29.93 in 10.0 mi East 4.6 mph - N/A   Scattered Clouds
5:34 PM 55.4 °F - 35.6 °F 47% 29.93 in 10.0 mi SE 5.8 mph - N/A   Scattered Clouds
5:53 PM 55.4 °F - 33.8 °F 44% 29.93 in 10.0 mi ESE 5.8 mph - N/A   Scattered Clouds
6:14 PM 55.4 °F - 35.6 °F 47% 29.92 in 10.0 mi East 4.6 mph - N/A   Clear
6:34 PM 55.4 °F - 30.2 °F 38% 29.92 in 10.0 mi Calm Calm - N/A   Scattered Clouds
6:53 PM 55.4 °F - 35.6 °F 47% 29.92 in 10.0 mi Calm Calm - N/A   Scattered Clouds
7:14 PM 53.6 °F - 30.2 °F 41% 29.92 in 10.0 mi Calm Calm - N/A   Clear
7:34 PM 55.4 °F - 30.2 °F 38% 29.92 in 10.0 mi SSW 3.5 mph - N/A   Clear
7:53 PM 53.6 °F - 32.0 °F 44% 29.92 in 10.0 mi SW 4.6 mph - N/A   Clear
8:14 PM 53.6 °F - 30.2 °F 41% 29.91 in 10.0 mi SSW 4.6 mph - N/A   Clear
8:34 PM 51.8 °F - 33.8 °F 50% 29.91 in 10.0 mi South 5.8 mph - N/A   Clear
8:53 PM 51.8 °F - 30.2 °F 44% 29.91 in 10.0 mi South 8.1 mph - N/A   Clear
9:14 PM 50.0 °F - 33.8 °F 54% 29.91 in 10.0 mi SSW 5.8 mph - N/A   Clear
9:34 PM 48.2 °F - 32.0 °F 54% 29.91 in 10.0 mi SW 6.9 mph - N/A   Clear
9:53 PM 46.4 °F 42.9 °F 32.0 °F 57% 29.91 in 10.0 mi SSW 6.9 mph - N/A   Clear
10:14 PM 48.2 °F - 32.0 °F 54% 29.90 in 10.0 mi South 8.1 mph - N/A   Scattered Clouds
10:53 PM 44.6 °F 43.1 °F 33.8 °F 66% 29.88 in 10.0 mi SSW 3.5 mph - N/A   Scattered Clouds
11:14 PM 44.6 °F 42.2 °F 32.0 °F 61% 29.88 in 10.0 mi SSW 4.6 mph - N/A   Clear
11:33 PM 44.6 °F 43.1 °F 30.2 °F 57% 29.89 in 10.0 mi WSW 3.5 mph - N/A   Scattered Clouds
11:54 PM 44.6 °F - 30.2 °F 57% 29.88 in 10.0 mi Calm Calm - N/A   Scattered Clouds